Home > Time Zones > World Clock > Weather > Iran > Yazd > Past weeks

Flag Weather past 2 weeks in Yazd, Iran

Now
50 °F

Clear.


Feels Like: 50 °F
Forecast: 46 / 71 °F
Wind: 2 mph from Southwest

Location: Yazd Airport

Current Time: Nov 22, 2014 at 12:13:00 AM

Latest Report: Nov 21, 2014 at 11:30 PM


Visibility: 10 mi

Pressure: 30.18 "Hg

Humidity: 37%

Dew point: 25 °F

Location of YazdLocation

Historic Weather in Yazd — Graph

°F

Yazd temperature yesterday

Maximum temperature yesterday: 66 °F (at 1:30 PM)
Minimum temperature yesterday: 41 °F (at 5:30 AM)
Average temperature yesterday: 55 °F

Past Weeks' High & Low Weather Summary

 TemperatureHumidityPressure
High72 °F (Nov 17, 2:30 PM)62% (Nov 19, 5:30 AM)30.48 "Hg (Nov 19, 5:30 AM)
Low36 °F (Nov 7, 4:30 AM)7% (Nov 9, 3:30 PM)30.09 "Hg (Nov 17, 2:30 PM)
Average52 °F26%30.29 "Hg
* Reported Nov 6 10:30 PM — Nov 21 10:30 PM, Yazd, Weather by CustomWeather, © 2014

Note: Actual official high and low records may vary slightly from our data, if they occured in-between our weather recording intervals... More about our weather records

Advertising

Yazd weather history for previous 24 hours

 ConditionsComfort  
Time TempWeatherWind HumidityBarometerVisibility
10:30 PM
Nov 21
50 °FClear.2 mph40%30.21 "Hg10 mi
9:30 PM52 °FClear.5 mph35%30.21 "Hg10 mi
9:00 PM54 °FClear.5 mph33%30.21 "Hg10 mi
8:30 PM55 °FClear.5 mph31%30.21 "Hg10 mi
8:00 PM59 °FClear.5 mph29%30.21 "Hg10 mi
7:30 PM59 °FClear.5 mph29%30.21 "Hg10 mi
7:00 PM59 °FClear.5 mph29%30.18 "Hg10 mi
6:30 PM59 °FClear.5 mph29%30.18 "Hg10 mi
6:00 PM61 °FClear.5 mph27%30.18 "Hg10 mi
5:30 PM63 °FPassing clouds.No wind25%30.18 "HgN/A
5:00 PM63 °FScattered clouds.No wind25%30.18 "HgN/A
4:30 PM66 °FScattered clouds.2 mph22%30.18 "HgN/A
4:00 PM66 °FScattered clouds.5 mph22%30.18 "HgN/A
3:30 PM66 °FScattered clouds.2 mph22%30.18 "HgN/A
3:00 PM66 °FScattered clouds.5 mph22%30.18 "HgN/A
2:30 PM66 °FSunny.2 mph22%30.18 "Hg10 mi
1:30 PM66 °FSunny.5 mph24%30.21 "Hg10 mi
12:30 PM64 °FSunny.5 mph26%30.24 "Hg10 mi
12:00 PM63 °FSunny.7 mph27%30.24 "Hg10 mi
11:30 AM61 °FSunny.7 mph29%30.27 "Hg10 mi
11:00 AM59 °FSunny.7 mph31%30.27 "Hg10 mi
10:30 AM57 °FSunny.5 mph31%30.30 "Hg10 mi
10:00 AM55 °FSunny.5 mph36%30.30 "Hg10 mi
9:30 AM55 °FSunny.2 mph36%30.33 "Hg10 mi
9:00 AM48 °FSunny.2 mph40%30.30 "Hg10 mi
8:30 AM48 °FSunny.2 mph40%30.30 "Hg10 mi
8:00 AM48 °FSunny.2 mph40%30.30 "Hg10 mi
7:30 AM45 °FSunny.2 mph46%30.30 "Hg10 mi
7:00 AM41 °FSunny.2 mph53%30.27 "Hg10 mi
6:30 AM41 °FClear.2 mph53%30.27 "Hg10 mi
6:00 AM41 °FClear.2 mph53%30.27 "Hg10 mi
5:30 AM41 °FClear.2 mph53%30.27 "Hg10 mi
4:30 AM43 °FClear.2 mph49%30.24 "Hg10 mi
3:30 AM43 °FClear.No wind53%30.27 "Hg10 mi
2:30 AM46 °FClear.5 mph46%30.27 "Hg10 mi
1:30 AM48 °FClear.2 mph43%30.27 "Hg10 mi
12:30 AM50 °FClear.5 mph40%30.27 "Hg10 mi
Weather by CustomWeather, © 2014

See weather overviewHow to use our weather pages